INTELSAT 34 (IS-34)

Last updated on Wed Sep 17 2025 00:02:48 GMT+0000 (Coordinated Universal Time)

1 40874U 15039A 25259.50131166 -.00000305 00000+0 00000+0 0 9994 2 40874 0.0172 248.2016 0001563 119.4836 112.9817 1.00269787 36889
UTC large
Height (km)
Speed (km/s)
/
Latitude / Longitude
Inclination (degrees)
Orbital Period (minutes)
Azimuth
Elevation
Range (km)
Doppler Factor

Next 0 passes for location: London (51.5072 / 0.1276)

Sorry there are no passes over London.